Weather History for Chester, CT

Change the Weather History Date:

Tuesday, September 10, 2013

  Actual Average (KHVN) Record (KHVN)
Temperature  
Mean Temperature 68 °F -  
Max Temperature 75 °F 73 °F 101 °F (1989)
Min Temperature 62 °F 58 °F 46 °F (1978)
Cooling Degree Days 4    
Growing Degree Days 18 (Base 50)    
Moisture  
Dew Point 66 °F    
Average Humidity 92    
Maximum Humidity 100    
Minimum Humidity 77    
Precipitation  
Precipitation 0.01 in - - ()
Sea Level Pressure  
Sea Level Pressure 30.14 in    
Wind  
Wind Speed 7 mph (SSW)    
Max Wind Speed 14 mph    
Max Gust Speed 25 mph    
Visibility 7 miles    
Events Rain    
Averages and records for this station are not official NWS values.
T = Trace of Precipitation, MM = Missing Value Source: NWS Daily Summary

Daily Weather History Graph

Daily Weather History Graph

Search for Another Location

Airport:

Trip Planner

Search our weather history database for the weather conditions in past years. The results will help you decide how hot, cold, wet, or windy it might be!

Date:

Astronomy

Sep. 10, 2013 Rise Set
Actual Time 6:25 AM EDT 7:07 PM EDT
Civil Twilight 5:57 AM EDT 7:35 PM EDT
Nautical Twilight 5:24 AM EDT 8:08 PM EDT
Astronomical Twilight 4:50 AM EDT 8:42 PM EDT
Moon 11:52 AM EDT (9/10) 10:04 PM EDT (9/10)
Length of Visible Light 13h 37m
Length of Day
12h 41m
Waxing Crescent, 28% of the Moon is Illuminated
Sep 10
Waxing Crescent
Sep 12
First Quarter
Sep 19
Full
Sep 26
Last Quarter
Oct 4
New

Hourly Weather History & Observations

Time (EDT) Temp. Dew Point Humidity Pressure Visibility Wind Dir Wind Speed Gust Speed Precip Events Conditions
12:15 AM 62.6 °F 55.4 °F 77% 30.19 in 10.0 mi SSW 3.5 mph - N/A   Partly Cloudy
12:35 AM 62.6 °F 55.4 °F 77% 30.19 in 10.0 mi South 4.6 mph - N/A   Partly Cloudy
12:55 AM 62.6 °F 57.2 °F 82% 30.18 in 10.0 mi SSW 6.9 mph - N/A   Mostly Cloudy
1:15 AM 62.6 °F 57.2 °F 82% 30.18 in 10.0 mi SSW 8.1 mph - N/A   Mostly Cloudy
1:35 AM 62.6 °F 57.2 °F 82% 30.18 in 10.0 mi SSW 6.9 mph - N/A   Overcast
1:55 AM 64.4 °F 57.2 °F 77% 30.17 in 10.0 mi South 6.9 mph - N/A   Overcast
2:15 AM 64.4 °F 59.0 °F 83% 30.18 in 10.0 mi South 5.8 mph - N/A   Overcast
2:35 AM 64.4 °F 59.0 °F 83% 30.18 in 10.0 mi South 5.8 mph - N/A   Overcast
2:55 AM 64.4 °F 59.0 °F 83% 30.17 in 10.0 mi South 5.8 mph - N/A   Overcast
3:15 AM 64.4 °F 59.0 °F 83% 30.17 in 10.0 mi SSW 8.1 mph - N/A   Mostly Cloudy
3:35 AM 64.4 °F 60.8 °F 88% 30.16 in 10.0 mi SSW 6.9 mph - N/A   Overcast
3:55 AM 64.4 °F 59.0 °F 83% 30.16 in 10.0 mi SSW 6.9 mph - N/A   Overcast
4:15 AM 66.2 °F 59.0 °F 78% 30.15 in 10.0 mi SSW 6.9 mph - N/A   Overcast
4:35 AM 66.2 °F 60.8 °F 83% 30.16 in 10.0 mi SSW 4.6 mph - N/A   Overcast
4:55 AM 66.2 °F 60.8 °F 83% 30.16 in 10.0 mi SSW 9.2 mph - N/A   Overcast
5:15 AM 66.2 °F 60.8 °F 83% 30.15 in 10.0 mi South 6.9 mph - N/A   Overcast
5:35 AM 66.2 °F 60.8 °F 83% 30.16 in 10.0 mi SSW 5.8 mph - N/A   Overcast
5:55 AM 66.2 °F 60.8 °F 83% 30.17 in 10.0 mi SSW 6.9 mph - N/A   Overcast
6:15 AM 66.2 °F 60.8 °F 83% 30.16 in 10.0 mi SSW 9.2 mph - N/A   Overcast
6:35 AM 64.4 °F 62.6 °F 94% 30.17 in 3.0 mi SSW 9.2 mph - 0.01 in   Light Drizzle
6:55 AM 64.4 °F 62.6 °F 94% 30.17 in 10.0 mi SSW 8.1 mph - 0.01 in   Overcast
7:15 AM 64.4 °F 64.4 °F 100% 30.17 in 6.0 mi SSW 9.2 mph - N/A   Overcast
7:35 AM 64.4 °F 64.4 °F 100% 30.17 in 1.5 mi SSW 9.2 mph - N/A   Overcast
7:55 AM 64.4 °F 64.4 °F 100% 30.17 in 2.5 mi SSW 9.2 mph - N/A   Overcast
8:15 AM 64.4 °F 64.4 °F 100% 30.16 in 3.0 mi South 6.9 mph - N/A   Overcast
8:35 AM 64.4 °F 64.4 °F 100% 30.17 in 5.0 mi SSW 8.1 mph - N/A   Overcast
8:55 AM 66.2 °F 64.4 °F 94% 30.18 in 3.0 mi SSW 5.8 mph - N/A   Overcast
9:15 AM 66.2 °F 66.2 °F 100% 30.18 in 4.0 mi SSW 8.1 mph - N/A   Overcast
9:35 AM 66.2 °F 66.2 °F 100% 30.18 in 7.0 mi South 6.9 mph - N/A   Overcast
9:55 AM 68.0 °F 66.2 °F 94% 30.18 in 10.0 mi SSW 8.1 mph - N/A   Overcast
10:15 AM 68.0 °F 66.2 °F 94% 30.18 in 5.0 mi SSW 6.9 mph 16.1 mph N/A   Overcast
10:35 AM 68.0 °F 66.2 °F 94% 30.18 in 4.0 mi SSW 8.1 mph - N/A   Overcast
10:55 AM 69.8 °F 66.2 °F 88% 30.18 in 9.0 mi SSW 10.4 mph 16.1 mph N/A   Overcast
11:15 AM 69.8 °F 68.0 °F 94% 30.18 in 9.0 mi SW 5.8 mph - N/A   Overcast
11:35 AM 69.8 °F 68.0 °F 94% 30.18 in 9.0 mi SSW 9.2 mph - N/A   Overcast
11:55 AM 69.8 °F 68.0 °F 94% 30.17 in 8.0 mi WSW 5.8 mph 17.3 mph N/A   Light Drizzle
12:15 PM 69.8 °F 69.8 °F 100% 30.15 in 5.0 mi SSW 11.5 mph 17.3 mph N/A Rain Light Rain
12:35 PM 69.8 °F 69.8 °F 100% 30.13 in 5.0 mi SW 6.9 mph 17.3 mph N/A Rain Light Rain
12:55 PM 69.8 °F 69.8 °F 100% 30.09 in 5.0 mi SSW 11.5 mph 17.3 mph N/A Rain Light Rain
1:15 PM 69.8 °F 69.8 °F 100% 30.08 in 5.0 mi SSW 9.2 mph 19.6 mph N/A   Overcast
1:35 PM 71.6 °F 69.8 °F 94% 30.08 in 5.0 mi SSW 10.4 mph 20.7 mph N/A   Overcast
1:55 PM 71.6 °F 69.8 °F 94% 30.07 in 6.0 mi SSW 12.7 mph 20.7 mph N/A   Overcast
2:15 PM 73.4 °F 69.8 °F 88% 30.09 in 6.0 mi WSW 13.8 mph 25.3 mph N/A   Overcast
2:35 PM 73.4 °F 69.8 °F 88% 30.11 in 7.0 mi SW 8.1 mph - N/A   Overcast
2:55 PM 73.4 °F 71.6 °F 94% 30.10 in 7.0 mi SW 9.2 mph 18.4 mph N/A   Overcast
3:15 PM 75.2 °F 69.8 °F 83% 30.10 in 8.0 mi SW 5.8 mph - N/A   Overcast
3:35 PM 75.2 °F 69.8 °F 83% 30.10 in 8.0 mi SW 8.1 mph - N/A   Overcast
3:55 PM 75.2 °F 69.8 °F 83% 30.09 in 8.0 mi SW 9.2 mph 17.3 mph N/A   Overcast
4:15 PM 75.2 °F 69.8 °F 83% 30.10 in 8.0 mi SW 10.4 mph 17.3 mph N/A   Overcast
4:35 PM 73.4 °F 69.8 °F 88% 30.09 in 8.0 mi SSW 9.2 mph - N/A   Overcast
4:55 PM 75.2 °F 69.8 °F 83% 30.09 in 8.0 mi SW 8.1 mph - N/A   Mostly Cloudy
5:15 PM 75.2 °F 71.6 °F 89% 30.09 in 8.0 mi SSW 11.5 mph 16.1 mph N/A   Scattered Clouds
5:35 PM 75.2 °F 71.6 °F 89% 30.09 in 8.0 mi SW 9.2 mph - N/A   Scattered Clouds
5:55 PM 73.4 °F 71.6 °F 94% 30.09 in 8.0 mi SSW 9.2 mph - N/A   Partly Cloudy
6:15 PM 73.4 °F 71.6 °F 94% 30.09 in 8.0 mi SSW 6.9 mph - N/A   Clear
6:35 PM 73.4 °F 71.6 °F 94% 30.09 in 8.0 mi SSW 8.1 mph - N/A   Clear
6:55 PM 73.4 °F 71.6 °F 94% 30.09 in 7.0 mi SSW 9.2 mph - N/A   Clear
7:15 PM 71.6 °F 71.6 °F 100% 30.10 in 7.0 mi SSW 8.1 mph - N/A   Clear
7:35 PM 71.6 °F 71.6 °F 100% 30.10 in 7.0 mi SSW 9.2 mph - N/A   Clear
7:55 PM 71.6 °F 71.6 °F 100% 30.10 in 7.0 mi SSW 8.1 mph - N/A   Clear
8:15 PM 71.6 °F 71.6 °F 100% 30.11 in 6.0 mi SSW 6.9 mph 16.1 mph N/A   Clear
8:35 PM 71.6 °F 71.6 °F 100% 30.11 in 5.0 mi SSW 9.2 mph - N/A   Clear
8:55 PM 71.6 °F 71.6 °F 100% 30.11 in 5.0 mi SSW 9.2 mph - N/A   Clear
9:15 PM 71.6 °F 71.6 °F 100% 30.11 in 5.0 mi SW 6.9 mph - N/A   Clear
9:35 PM 71.6 °F 71.6 °F 100% 30.11 in 5.0 mi SW 6.9 mph - N/A   Clear
9:55 PM 71.6 °F 71.6 °F 100% 30.11 in 4.0 mi WSW 8.1 mph - N/A   Clear
10:15 PM 71.6 °F 71.6 °F 100% 30.11 in 4.0 mi SW 6.9 mph - N/A   Partly Cloudy
10:35 PM 71.6 °F 71.6 °F 100% 30.11 in 4.0 mi SW 8.1 mph - N/A   Scattered Clouds
10:55 PM 71.6 °F 71.6 °F 100% 30.11 in 4.0 mi SW 8.1 mph - N/A   Scattered Clouds
11:15 PM 71.6 °F 71.6 °F 100% 30.11 in 4.0 mi SW 8.1 mph - N/A   Partly Cloudy
11:35 PM 71.6 °F 71.6 °F 100% 30.11 in 4.0 mi SSW 10.4 mph - N/A   Partly Cloudy
11:55 PM 71.6 °F 71.6 °F 100% 30.11 in 3.0 mi SW 6.9 mph - N/A   Mostly Cloudy